Theta_e
300 300 300 295 290 295 289 287 289 293 304 312 317 323 324 325 327 329 330 331 333 333 335 335 337 336 341 345 344 345 345 345
300 300 300 297 298 290 287 284 283 289 299 302 310 318 322 324 326 328 331 332 333 335 336 335 339 338 339 345 345 346 346 345
293 293 294 293 290 290 290 289 288 285 294 308 310 317 322 324 327 328 330 332 333 335 337 337 339 340 339 341 344 345 346 345
290 294 298 296 294 293 290 287 288 289 293 304 312 316 325 326 328 329 330 332 334 335 337 338 337 339 339 340 342 344 346 345
286 289 293 290 292 290 289 288 287 288 292 306 311 312 318 323 326 324 325 331 333 335 335 336 337 340 340 340 340 342 345 345
282 285 292 293 296 296 291 287 288 289 294 299 311 313 315 316 319 322 323 329 331 334 336 337 338 338 340 341 342 342 343 343
290 293 295 296 297 298 293 293 290 294 295 299 309 312 315 319 320 320 322 323 330 333 335 337 338 338 339 342 343 343 343 343
288 296 297 297 299 300 299 299 294 294 295 301 306 318 322 325 327 325 323 326 330 333 336 336 337 338 338 340 343 344 343 343
284 291 293 291 296 299 299 310 308 294 297 307 314 319 323 326 326 325 324 328 330 333 336 337 338 339 338 340 343 343 343 344
283 287 284 293 302 304 304 313 314 314 317 318 315 320 325 328 327 324 324 328 331 335 336 338 340 340 340 342 342 342 342 343
282 282 290 299 302 305 306 306 317 316 321 323 318 317 318 324 323 327 326 328 332 337 338 339 340 340 340 340 342 342 341 343
283 281 284 294 308 312 312 299 316 320 323 325 314 309 315 319 324 324 328 330 330 336 337 338 339 340 338 338 339 341 343 343
283 283 287 304 310 314 299 301 312 321 324 327 320 321 330 323 324 321 326 328 330 336 337 337 338 339 337 338 337 341 345 345
282 282 285 310 311 304 310 314 316 322 324 325 326 329 333 321 321 324 327 329 330 334 335 337 338 339 337 337 341 341 343 344
287 287 303 309 309 312 313 312 318 321 324 326 326 328 332 334 335 334 328 328 331 333 333 333 336 339 337 339 341 341 341 342
295 297 301 309 311 312 314 313 320 323 324 325 324 327 330 331 333 336 341 337 330 330 329 331 335 338 339 337 338 340 339 340
297 300 301 306 306 309 314 316 318 322 323 324 324 324 327 329 331 335 340 343 345 332 328 330 334 335 336 334 338 339 340 340
292 298 300 301 307 310 314 314 315 320 321 323 324 324 326 327 330 334 335 337 340 343 339 334 335 336 336 336 337 339 338 339
298 305 305 306 311 314 315 315 314 322 323 320 323 325 326 325 326 326 331 335 337 339 341 341 341 342 344 343 338 337 337 338
Wind_Speed
8 7 12 6 6 9 5 1 3 5 9 12 4 5 8 16 19 20 20 22 22 20 20 20 19 21 20 18 16 15 14 10
9 5 7 10 7 5 3 7 5 5 5 7 5 7 6 14 17 19 20 20 20 19 20 18 19 19 19 19 19 16 15 12
1 6 12 1 3 3 5 7 9 4 8 9 13 8 14 18 21 23 21 23 23 22 21 20 19 19 18 17 18 15 14 13
14 5 5 9 11 10 7 7 3 3 10 6 11 8 13 16 15 15 17 22 24 23 22 21 21 19 19 17 17 16 15 13
3 6 6 3 4 4 4 4 8 6 8 4 6 6 10 13 14 12 12 16 16 20 22 22 21 20 19 18 18 16 14 13
5 5 4 5 2 3 5 4 4 8 10 9 9 8 6 9 10 12 15 19 21 20 23 22 21 20 20 19 17 16 15 14
8 12 5 7 7 5 7 7 7 7 12 11 12 12 11 9 10 11 10 18 23 23 24 24 22 20 18 19 18 17 16 15
5 4 4 9 9 9 7 2 5 7 8 8 7 4 6 10 10 11 13 18 23 19 18 19 20 20 18 18 18 17 17 17
6 6 8 2 2 4 3 2 3 3 5 7 6 9 12 12 13 17 16 16 20 22 24 22 21 20 20 19 18 18 17 17
5 6 5 6 4 5 1 5 5 6 9 10 14 16 14 12 14 9 12 18 20 20 20 19 18 19 17 16 18 18 17 16
0 4 7 2 6 6 4 3 9 10 15 15 9 3 9 6 3 7 8 12 15 18 18 18 18 18 17 15 16 16 17 17
2 1 5 1 19 14 6 4 12 13 16 16 7 5 10 4 5 7 9 8 10 15 13 16 16 15 17 16 16 17 17 17
4 3 7 10 23 15 5 4 15 11 12 13 7 5 17 14 3 2 3 9 11 14 16 18 15 16 17 16 18 20 17 16
2 2 5 18 7 8 10 12 7 7 8 12 11 12 13 9 7 8 8 5 12 15 15 14 14 17 17 17 20 15 15 15
1 3 4 8 8 11 8 11 6 6 6 10 11 12 15 13 13 12 9 4 5 10 13 10 13 16 18 16 12 12 13 15
6 2 15 5 13 17 17 17 14 7 8 7 9 14 13 13 13 13 13 9 5 5 7 8 10 15 13 9 9 12 13 13
5 8 14 6 15 19 22 21 14 10 9 10 11 14 13 11 13 12 11 13 12 7 3 7 7 6 6 7 10 12 12 11
3 10 5 10 15 20 20 20 19 12 14 12 11 10 12 11 12 11 12 12 12 11 8 7 3 3 3 6 10 12 11 9
4 7 11 15 13 14 17 20 20 10 9 11 13 11 11 8 12 11 14 14 12 10 11 7 8 9 9 5 6 10 12 10
Wind_Direction
185 193 164 220 168 185 179 335 32 243 284 301 282 316 163 176 181 186 188 189 191 188 189 184 191 186 186 184 193 191 196 194
238 159 233 163 174 90 351 162 235 262 262 242 272 244 149 172 184 193 192 190 189 187 188 189 189 193 187 187 189 194 193 198
73 204 211 154 179 101 139 152 197 224 252 223 239 198 192 190 193 195 188 188 189 189 186 188 188 188 193 189 191 193 196 196
239 235 200 184 193 183 187 248 242 194 249 262 242 235 193 200 197 200 207 193 189 188 184 184 185 189 191 192 191 193 194 194
39 354 352 231 215 163 123 91 209 188 267 265 278 268 198 199 199 192 202 201 194 189 187 189 187 186 188 192 193 191 189 191
202 258 273 285 300 179 145 138 211 209 240 281 261 236 211 197 216 196 194 198 193 190 191 188 190 184 186 187 192 187 188 193
244 249 230 248 252 239 173 211 170 232 207 231 234 214 208 205 212 217 210 203 196 192 191 188 185 187 186 185 185 185 189 195
275 268 318 255 250 239 231 246 243 266 251 233 270 155 180 205 207 212 210 200 195 186 187 189 188 184 182 182 185 182 189 197
272 316 314 257 249 289 98 145 207 284 265 321 237 211 197 204 205 211 198 183 180 182 183 185 186 182 185 183 180 185 189 196
271 318 179 223 315 242 259 83 24 306 312 298 268 230 205 209 196 202 203 185 183 182 182 187 183 185 182 175 178 185 192 193
201 269 287 35 6 344 19 317 7 340 333 323 288 116 282 228 238 214 205 196 184 183 182 169 180 182 176 174 179 186 193 194
291 276 225 343 328 319 234 216 356 352 343 341 323 159 239 322 175 233 187 175 180 171 171 165 178 176 172 176 174 191 195 197
219 259 284 340 323 311 73 299 325 339 341 354 351 291 298 296 190 301 248 188 172 168 174 182 168 170 182 181 187 197 195 192
128 207 291 348 12 40 324 302 306 319 331 337 329 340 359 3 10 352 326 221 182 180 181 179 171 176 185 193 199 190 191 192
269 234 269 313 351 337 325 327 304 316 325 342 343 354 7 2 4 344 337 350 218 200 163 169 174 185 191 201 186 189 188 195
323 357 331 289 345 349 350 343 327 323 330 355 350 360 5 4 2 356 345 5 350 167 163 164 180 193 198 177 164 173 193 198
262 352 331 5 341 336 338 340 339 345 342 358 21 3 3 1 2 359 354 3 12 351 210 169 181 185 183 172 165 188 194 198
290 316 289 298 315 316 335 339 338 348 344 346 18 16 4 3 359 5 8 6 15 0 333 55 105 127 220 191 184 189 198 199
265 304 309 292 310 331 328 335 331 342 345 347 5 20 14 9 0 0 13 16 8 360 357 13 55 55 67 350 207 195 204 206